SKYSAT-C4
Last updated on Sun Jun 21 2026 00:02:52 GMT+0000 (Coordinated Universal Time)
1 41771U 16058B 26171.30447646 .00014622 00000+0 27482-3 0 9991
2 41771 96.9172 192.9462 0001584 137.0730 223.0646 15.48669604545958
Next 0 passes for location: London (51.5072 / 0.1276)
No passes found over London.